Location: USNO
(38.9242°N, 77.0663°W)
Time: 06:27:46
(UTC-04:00)

Daily predictions for brighter satellites

Satellite Brightness Start Highest point End
(mag) Time Altitude Azimuth Time Altitude Azimuth Time Altitude Azimuth
COSMOS 2455 4.2 20:46:38 10° NW 20:52:07 38° WSW 20:57:35 10° S
SL-27 R/B 2.5 20:52:24 10° SSW 20:56:02 76° ESE 20:59:41 10° NNE
Cosmos 1441 Rocket 3.4 20:53:42 10° SSE 20:57:16 45° E 21:00:51 10° NNE
Tiangong 2 2.2 20:58:43 10° W 21:01:49 46° N 21:04:54 10° ENE
Helios 1B rocket 2.5 20:59:25 10° NNE 21:03:31 59° E 21:07:35 10° S
H-2A R/B 4.5 13:16:20 10° SW 21:04:13 52° SSW 21:12:00 10° SE
Cosmos 1680 Rocket 3.8 20:59:04 10° SSW 21:04:16 74° WNW 21:09:30 10° NNE
Meteor 1-19 Rocket 4.4 20:59:47 10° S 21:05:36 87° W 21:11:21 10° N
Meteor 2-13 Rocket 4.4 20:59:48 10° N 21:05:53 75° E 21:11:57 10° SSE
Aureole 1 Rocket 2.4 21:03:24 10° SSW 21:06:39 73° WNW 21:09:38 10° NNE
Meteor 1-23 Rocket 4.4 21:01:27 10° SSE 21:06:48 50° E 21:12:13 10° NNE
Cosmos 1346 3.7 21:04:44 10° SSW 21:07:26 53° W 21:10:10 10° N
Cosmos 2056 Rocket 4.3 21:05:07 10° N 21:09:51 36° ENE 21:14:19 11° SE
Envisat 3.0 21:05:20 10° SSE 21:10:24 82° ENE 21:15:30 10° N
DNEPR-1 R/B 4.0 21:11:12 10° NW 21:15:27 63° WSW 21:20:10 10° SSE
SAR-Lupe-4 3.6 21:11:56 10° SSE 21:15:30 70° ENE 21:19:05 10° N
Cosmos 2082 Rocket 3.3 21:11:14 10° SSE 21:15:40 24° ESE 21:20:06 10° NE
COSMOS 2406 4.4 21:13:41 10° SW 21:19:10 47° WNW 21:24:41 10° NNE
Okean 1-7 Rocket 3.6 21:17:59 10° S 21:22:25 74° E 21:26:56 10° N
YAOGAN 6 2.8 21:19:55 12° SSE 21:23:00 50° ENE 21:26:25 10° N
Cosmos 1743 4.0 21:20:10 10° NNW 21:23:52 42° W 21:27:34 10° SSW
Okean 2 3.6 21:21:15 10° S 21:25:12 50° E 21:29:10 10° NNE
Cosmos 1606 Rocket 4.2 21:23:25 10° N 21:27:29 38° ENE 21:30:35 16° SE
Cosmos 1025 Rocket 2.9 21:26:15 10° S 21:30:30 81° E 21:34:46 10° N
SPOT 5 4.0 21:28:06 14° ESE 21:30:43 24° ENE 21:34:13 10° NNE
CZ-4B DEB 2.8 21:28:46 10° S 21:31:44 68° WSW 21:34:43 10° NNW
SAR-Lupe-1 4.1 21:28:11 10° SSE 21:31:45 84° WSW 21:35:21 10° NNW
Meteor 1-15 Rocket 4.2 21:27:25 10° N 21:32:58 66° E 21:38:01 12° SSE
MOS 1-B Rocket 4.5 21:29:12 14° SE 21:34:00 47° ENE 21:40:15 10° N
Cosmos 1697 Rocket 4.2 21:29:47 10° N 21:34:11 23° NE 21:37:54 12° ESE
Cosmos 1726 Rocket 4.1 21:32:20 10° N 21:36:25 40° ENE 21:39:07 19° SE
Cosmos 2341 Rocket 4.3 21:31:15 10° N 21:37:25 51° E 21:42:28 16° SSE
Cosmos 405 3.2 21:34:46 10° NNW 21:38:18 68° W 21:41:35 11° S
Cosmos 2369 4.2 21:33:55 10° NNW 21:39:27 48° ENE 21:43:25 18° SE
USA 186 4.5 21:38:00 10° SW 21:40:07 17° W 21:42:12 10° NW
COSMOS 2487 2.8 21:37:46 13° S 21:40:46 43° ESE 21:44:10 10° NNE
Cosmos 1666 4.0 21:37:45 10° NNW 21:41:14 38° W 21:44:43 10° SSW
CENTAUR R/B 4.3 21:35:56 10° NW 21:43:14 38° WSW 21:50:48 10° S
MetOp-A 4.4 21:41:21 17° SE 21:45:20 55° ENE 21:50:34 10° N
ERS-1 Rocket 3.0 21:41:26 15° SSE 21:45:32 73° ENE 21:50:34 10° N
USA 245 4.0 21:47:12 18° ENE 21:47:12 18° ENE 21:48:48 10° NNE
Cosmos 1833 Rocket 3.0 21:43:14 10° S 21:48:29 43° ESE 21:53:46 10° NE
Cosmos 1371 Rocket 4.2 21:44:31 10° NNW 21:49:49 73° WSW 21:54:08 15° S
CRYOSAT 2 4.4 21:45:56 10° S 21:50:47 80° W 21:55:39 10° N
ISS -0.7 21:49:22 10° WNW 21:51:35 17° NNW 21:53:48 10° NNE
OAO 2 Rocket 3.8 21:47:28 10° W 21:52:07 42° SSW 21:54:39 24° SE
SPOT 1/Viking Rocket 4.5 21:49:30 20° ESE 21:52:18 33° ENE 21:56:51 10° N
OE (NEXTSAT) 4.3 21:49:48 10° WNW 21:53:22 76° SSW 21:54:57 31° SE
Cosmos 2058 Rocket 3.4 21:52:00 10° N 21:56:19 49° E 21:58:30 26° SE
YAOGAN 11 4.1 22:02:04 28° SE 22:04:12 63° ENE 22:08:30 10° N
Cosmos 2181 Rocket 4.0 21:58:24 11° S 22:04:34 75° E 22:10:51 10° N
Cosmos 1295 Rocket 4.5 21:58:55 10° N 22:05:08 70° E 22:09:16 22° SSE
ASTEX 1 4.1 22:00:59 10° S 22:05:45 52° W 22:10:32 10° NNW
Cosmos 1437 Rocket 3.3 22:02:58 10° NNW 22:06:45 55° W 22:09:19 19° SSW
Cosmos 1066 Rocket 4.3 22:06:49 23° SSE 22:10:08 55° E 22:15:38 10° NNE
Cosmos 1515 4.1 22:09:19 15° SSW 22:12:24 62° W 22:16:11 10° N
H-2A R/B 3.8 22:11:41 18° E 22:12:56 21° ENE 22:16:16 10° NNE
Hubble Space Telescope 3.1 22:16:48 10° SSW 22:17:02 11° SSW 22:17:02 11° SSW
Cosmos 1626 Rocket 3.8 22:21:47 40° SE 22:22:39 46° E 22:26:47 10° NNE
Cosmos 1980 Rocket 3.2 22:18:28 10° N 22:23:33 33° ENE 22:25:49 24° E
ARGOS 3.1 22:20:51 28° SSE 22:23:50 88° W 22:29:17 10° NNW
TELKOM 3 3.7 22:31:41 10° NW 22:33:54 68° NW 22:33:54 68° NW
Cosmos 2228 3.1 22:30:04 10° NNW 22:34:21 70° W 22:35:49 39° SSW
Cosmos 2322 Rocket 4.2 22:31:29 10° NNE 22:34:58 16° NE 22:37:39 12° E
Cosmos 921 Rocket 3.9 22:30:55 10° NNW 22:35:09 44° W 22:37:02 27° SSW
Tiangong 2 2.1 22:35:49 10° WNW 22:38:53 43° N 22:39:21 39° NE
H-2A R/B 1.9 22:38:01 43° SSE 22:39:42 82° ENE 22:44:46 10° N
SL-8 Rocket 4.0 22:34:38 10° N 22:40:56 83° W 22:44:11 31° S
Landsat 7 3.9 22:40:01 47° SE 22:41:11 63° ENE 22:45:54 10° N
Cosmos 1766 3.8 22:38:57 10° N 22:42:35 43° ENE 22:42:35 43° ENE
Meteor 1-21 4.5 22:41:29 41° SE 22:43:01 52° E 22:48:34 10° NNE
Cosmos 2366 rocket 3.9 22:41:41 10° N 22:47:52 83° E 22:50:17 40° SSE
CZ-3A R/B 3.6 22:50:00 10° WNW 22:50:50 11° NW 22:51:31 10° NNW
Terra 1.9 22:55:30 55° ESE 22:56:12 62° ENE 23:00:55 10° N
Lacrosse 5 rocket 4.0 22:53:32 10° NNW 22:56:36 17° NNE 22:59:32 10° ENE
Meteor 1-4 Rocket 3.1 22:54:48 10° NNW 22:58:16 50° W 22:58:16 50° W
Cosmos 1602 Rocket 3.7 22:57:24 50° SW 22:58:21 69° W 23:02:41 10° N
Cosmos 2082 Rocket 3.2 22:54:01 10° SW 22:59:25 45° WNW 23:04:50 10° N
Cosmos 1269 Rocket 3.9 23:01:07 42° SSW 23:02:58 87° WNW 23:08:18 10° NNE
Cosmos 1420 Rocket 4.0 23:02:44 10° NNW 23:07:58 71° WSW 23:08:59 55° SSW
SPOT 5 4.2 23:07:20 23° SW 23:08:41 27° W 23:12:25 10° NW
DMSP B5D2-2 4.2 23:04:48 10° N 23:10:04 73° WNW 23:11:57 40° SSW
Cosmos 1048 Rocket 4.1 23:08:12 39° SW 23:10:06 72° WNW 23:15:18 10° NNE
Cosmos 1805 4.0 23:07:35 10° N 23:10:42 44° NE 23:10:42 44° NE
Meteor 2-14 Rocket 4.4 23:07:55 10° N 23:14:00 79° W 23:15:45 49° S
deb Chang Zheng 4 3.4 23:10:14 10° NNE 23:14:27 83° ENE 23:14:27 83° ENE
Meteor 1-22 Rocket 4.5 23:12:44 10° NNW 23:17:58 58° W 23:19:21 44° SW
Cosmos 1697 Rocket 3.1 23:12:59 10° NNW 23:18:25 51° WSW 23:19:38 43° SW
Cosmos 1758 4.2 23:15:01 10° N 23:18:05 41° NE 23:18:05 41° NE
Cosmos 389 Rocket 4.2 23:16:35 10° N 23:18:31 26° NNE 23:18:31 26° NNE
Spot 4 4.0 23:21:37 58° E 23:21:43 58° ENE 23:26:27 10° N
Lacrosse 5 3.0 23:25:30 32° ENE 23:25:30 32° ENE 23:28:23 10° NE
CARTOSAT-1 3.7 23:24:03 63° W 23:24:03 63° W 23:28:17 10° NNW
USA 267 4.0 23:18:26 10° ENE 23:22:58 33° E 23:22:58 33° E
Cosmos 2360 4.0 23:21:34 10° NNW 23:27:19 90° WSW 23:28:04 69° SSE
Iridium 2 4.4 23:24:41 10° N 23:27:42 52° NNW 23:27:42 52° NNW
SL-16 R/B 3.0 23:23:18 10° N 23:28:37 39° ENE 23:29:33 37° E
NOSS 3-1 (C) 4.5 23:23:59 10° NNW 23:31:26 54° NE 23:34:52 34° ESE
IGS 5A 4.0 23:32:35 51° W 23:32:35 51° W 23:36:20 10° NNW
DELTA 2 DEB (DPAF) 4.4 23:34:36 64° NE 23:34:36 64° NE 23:38:40 10° N
Cosmos 1842 4.3 23:38:51 41° WNW 23:38:51 41° WNW 23:42:16 10° N
ATLAS CENTAUR R/B 2.8 23:36:04 10° NNW 23:38:30 27° NNE 23:38:30 27° NNE
Cosmos 1271 Rocket 3.9 23:37:31 10° NNW 23:40:35 39° WNW 23:40:35 39° WNW
Cosmos 1758 Rocket 4.0 23:47:43 57° N 23:47:43 57° N 23:51:13 10° N
Cosmos 2251 Rocket 3.6 23:47:57 66° ENE 23:47:57 66° ENE 23:52:54 10° NNE
H-2A R/B 3.2 23:48:48 37° W 23:48:48 37° W 23:52:52 10° NNW
